Other Surface Observations
Issued by NWS Tucson, AZ

Home | Current Version | Previous Version | Text Only | Print | Product List | Glossary On
Versions: 1 2 3 4 5 6 7 8 9 10 11 12 13 14 15 16 17 18 19 20 21 22 23 24 25 26 27 28 29 30 31 32 33 34 35 36 37 38 39 40 41 42 43 44 45 46 47 48 49 50
970
SXUS55 KTWC 220015
OSOTWC

WEATHER ROUNDUP FOR SOUTHEAST ARIZONA
NATIONAL WEATHER SERVICE TUCSON AZ
515 PM MST TUE FEB 21 2017

AZZ504>506-514-220115-
LOCATION       SKY/WX    TMP DP  RH WIND       PRES   REMARKS
TUCSON         SUNNY     77  47  34 N7        30.19F
DAVIS-MONTHAN  SUNNY     74  47  39 NW8       30.18F
CHILDRENS PARK N/A      N/A N/A  40 W5                PIMA CO DEQ
ALVERNON/22ND  N/A       75 N/A N/A W5                PIMA CO DEQ
CHERRY/GLENN   N/A       76 N/A N/A W4                PIMA CO DEQ
TANGERINE      N/A       74 N/A N/A W6                PIMA CO DEQ
CONTL RANCH    N/A       74  47  39 W7                PIMA CO DEQ
GRANT/1ST      N/A       74  47  39 NW5               PIMA CO DEQ
CRAYCROFT/22ND N/A       75  45  34 N/A               PIMA CO DEQ
GOLFLINKS/KOLB N/A       75  43  32 NW5               PIMA CO DEQ
AJO/12TH       N/A       74  45  36 SW6               PIMA CO DEQ
FAIRGROUNDS    N/A       74 N/A N/A N/A               PIMA CO DEQ
SAGUARO        N/A       78  48  35 W3                *SABINO CYN
SAN CARLOS     N/A       77  46  34 S6G10             *SAN CARLOS
GREEN VALLEY   N/A       75  40  28 S8                PIMA CO DEQ
HORSE CAMP CYN N/A       71  41  34 W6G11             *ARAVAIPA CYN
RINCON MTNS    NOT AVBL
$$

AZZ509>511-220115-
LOCATION       SKY/WX    TMP DP  RH WIND       PRES   REMARKS
SAFFORD        SUNNY     75  38  26 W10       30.15F
STRAY HORSE    N/A       59  31  34 N/A               *
TRAIL CABIN    NOT AVBL
BLACK HILLS    NOT AVBL
DRY LAKE       N/A       59  31  34 NW5G11            *NATANES MTNS
NOON CREEK     NOT AVBL
COLUMBINE      N/A       52  28  39 SW5G11            *PINALENO MTNS
GUTHRIE        N/A       62  36  38 W8G16             *SW OF GUTHRIE
$$

AZZ502-503-513-220115-
LOCATION       SKY/WX    TMP DP  RH WIND       PRES   REMARKS
NOGALES        SUNNY     75  34  22 NW8       30.20F
SELLS          N/A       80  42  26 NE6G12            *
SASABE         N/A       76  40  27 N8G15             *ALTAR VLY
HOPKINS        N/A       67  36  32 S3                *SANTA RITA MTNS
CARR CYN       N/A       67  36  32 S2                *W OF HEREFORD
$$

AZZ507-508-512-220115-
LOCATION       SKY/WX    TMP DP  RH WIND       PRES   REMARKS
SIERRA VISTA   SUNNY     71  32  23 NE6       30.25F
DOUGLAS        SUNNY     75  32  20 NW5       30.21F
EMPIRE MTNS    NOT AVBL
MULESHOE RANCH N/A       73  41  31 NW10G14           *PRESERVE
HEADQUARTERS   NOT AVBL
$$

.............................NOTES.............................
THIS IS AN AUTOMATED COLLECTIVE WITH MINIMAL QUALITY CONTROL.
PIMA CO DEQ SITES HAVE NONSTANDARD WIND SENSOR HEIGHTS.
PIMA CO DEQ SITES DO NOT REPORT WIND GUSTS.
* INDICATES WIND SENSORS LOCATED AT 20 FEET INSTEAD OF 33 FEET.
..............................KEY..............................
SKY/WX - SKY CONDITION/WEATHER
TMP    - TEMPERATURE IN FAHRENHEIT
DP     - DEWPOINT IN FAHRENHEIT
RH     - RELATIVE HUMIDITY IN PERCENT
WIND   - DIRECTION AND SPEED IN MILES PER HOUR (MPH)
VRB    - VARIABLE WIND DIRECTION
PRES   - MEAN SEA LEVEL PRESSURE IN INCHES OF MERCURY
         F - FALLING PRESSURE   R - RISING PRESSURE
         S - STEADY PRESSURE
VSB    - VISIBILITY IN MILES
HX     - HEAT INDEX IN FAHRENHEIT
WCI    - WIND CHILL INDEX IN FAHRENHEIT
N/A    - NOT AVAILABLE
AFB    - AIR FORCE BASE
         DAVIS-MONTHAN IS DAVIS-MONTHAN AIR FORCE BASE
CYN    - CANYON
MTNS   - MOUNTAINS
NCA    - NATIONAL CONSERVATION AREA
NR     - NEAR
VLY    - VALLEY
CONTL  - CONTINENTAL
PIMA CO DEQ - PIMA COUNTY DEPT OF ENVIRONMENTAL QUALITY



USA.gov is the U.S. government's official web portal to all federal, state and local government web resources and services.